Naples, Italy

5:27 PM CEST on August 25, 2016 (GMT +0200)
Capodichino Mil

Weather History for LIRN - October, 2012

Change the Weather History Date:

Thursday, October 25, 2012

  Actual Average Record
Temperature  
Mean Temperature 67 °F -  
Max Temperature 77 °F 64 °F 84 °F (1999)
Min Temperature 57 °F 47 °F 44 °F (2015)
Cooling Degree Days 2    
Growing Degree Days 17 (Base 50)    
Moisture  
Dew Point 56 °F    
Average Humidity 71    
Maximum Humidity 88    
Minimum Humidity 41    
Precipitation  
Precipitation 0.00 in 0.21 in - ()
Sea Level Pressure  
Sea Level Pressure 29.93 in    
Wind  
Wind Speed 3 mph ()    
Max Wind Speed 8 mph    
Max Gust Speed -    
Visibility 5.1 miles    
Events      
Averages and records for this station are not official NWS values.
T = Trace of Precipitation, MM = Missing Value Source: Averaged Metar Reports

Daily Weather History Graph

Daily Weather History Graph

Search for Another Location

Airport or City:

Trip Planner

Search our weather history database for the weather conditions in past years. The results will help you decide how hot, cold, wet, or windy it might be!

Date:

Astronomy

Oct. 25, 2012 Rise Set
Actual Time 7:25 AM CEST 6:07 PM CEST
Civil Twilight 6:57 AM CEST 6:35 PM CEST
Nautical Twilight 6:25 AM CEST 7:07 PM CEST
Astronomical Twilight 5:53 AM CEST 7:39 PM CEST
Moon 3:46 PM CEST 3:02 AM CEST
Length of Visible Light 11h 38m
Length of Day
10h 41m
Waxing Gibbous, 82% of the Moon is Illuminated
Oct 25
Waxing Gibbous
Oct 29
Full
Nov 7
Last Quarter
Nov 13
New
Nov 20
First Quarter

Hourly Weather History & Observations

Time (CEST) Temp. Dew Point Humidity Pressure Visibility Wind Dir Wind Speed Gust Speed Precip Events Conditions
12:20 AM 60.8 °F 57.2 °F 88% 29.98 in 5.0 mi NNW 2.3 mph - N/A   Unknown
12:50 AM 59.0 °F 55.4 °F 88% 29.98 in 5.0 mi NNW 3.5 mph - N/A   Unknown
1:20 AM 60.8 °F 55.4 °F 82% 29.95 in 5.0 mi NNW 3.5 mph - N/A   Unknown
1:50 AM 60.8 °F 55.4 °F 82% 29.95 in 5.0 mi North 3.5 mph - N/A   Unknown
2:20 AM 60.8 °F 57.2 °F 88% 29.95 in 5.0 mi Variable 1.2 mph - N/A   Unknown
2:50 AM 59.0 °F 55.4 °F 88% 29.95 in 5.0 mi NW 3.5 mph - N/A   Unknown
3:20 AM 57.2 °F 53.6 °F 88% 29.95 in 5.0 mi Variable 2.3 mph - N/A   Unknown
3:50 AM 59.0 °F 55.4 °F 88% 29.95 in 5.0 mi North 2.3 mph - N/A   Unknown
4:20 AM 59.0 °F 53.6 °F 82% 29.95 in 5.0 mi North 2.3 mph - N/A   Unknown
4:50 AM 57.2 °F 53.6 °F 88% 29.95 in 5.0 mi NNW 3.5 mph - N/A   Unknown
5:20 AM 59.0 °F 53.6 °F 82% 29.95 in 5.0 mi North 3.5 mph - N/A   Unknown
5:50 AM 57.2 °F 53.6 °F 88% 29.92 in 5.0 mi NNW 2.3 mph - N/A   Unknown
6:20 AM 59.0 °F 53.6 °F 82% 29.92 in 5.0 mi North 4.6 mph - N/A   Unknown
6:50 AM 57.2 °F 53.6 °F 88% 29.92 in 5.0 mi NNW 2.3 mph - N/A   Unknown
7:20 AM 59.0 °F 53.6 °F 82% 29.92 in - NNW 3.5 mph - N/A   Clear
7:50 AM 57.2 °F 51.8 °F 82% 29.95 in - NW 3.5 mph - N/A   Clear
8:20 AM 60.8 °F 53.6 °F 77% 29.95 in - NNW 3.5 mph - N/A   Clear
8:50 AM 60.8 °F 53.6 °F 77% 29.95 in - NNW 3.5 mph - N/A   Clear
9:20 AM 62.6 °F 53.6 °F 72% 29.95 in - North 4.6 mph - N/A   Clear
9:50 AM 64.4 °F 55.4 °F 73% 29.95 in - North 4.6 mph - N/A   Clear
10:20 AM 66.2 °F 53.6 °F 64% 29.95 in - NNE 4.6 mph - N/A   Clear
10:50 AM 68.0 °F 53.6 °F 60% 29.95 in - NNE 3.5 mph - N/A   Clear
11:20 AM 71.6 °F 55.4 °F 57% 29.95 in - Variable 2.3 mph - N/A   Clear
11:50 AM 75.2 °F 53.6 °F 47% 29.95 in - Variable 1.2 mph - N/A   Clear
12:20 PM 75.2 °F 53.6 °F 47% 29.95 in - Variable 1.2 mph - N/A   Clear
12:50 PM 77.0 °F 51.8 °F 41% 29.92 in - NW 3.5 mph - N/A   Clear
1:20 PM 77.0 °F 51.8 °F 41% 29.92 in - South 6.9 mph - N/A   Clear
1:50 PM 77.0 °F 53.6 °F 44% 29.92 in - South 5.8 mph - N/A   Clear
2:20 PM 77.0 °F 53.6 °F 44% 29.92 in 6.2 mi South 6.9 mph - N/A   Partly Cloudy
2:50 PM 77.0 °F 53.6 °F 44% 29.89 in 6.2 mi South 6.9 mph - N/A   Partly Cloudy
3:20 PM 75.2 °F 53.6 °F 47% 29.89 in - SSW 6.9 mph - N/A   Clear
3:50 PM 75.2 °F 53.6 °F 47% 29.89 in - South 6.9 mph - N/A   Clear
4:20 PM 75.2 °F 55.4 °F 50% 29.89 in - South 8.1 mph - N/A   Clear
4:50 PM 73.4 °F 57.2 °F 57% 29.89 in - South 5.8 mph - N/A   Clear
5:20 PM 73.4 °F 59.0 °F 61% 29.89 in - SW 3.5 mph - N/A   Clear
5:50 PM 69.8 °F 59.0 °F 68% 29.89 in - WSW 6.9 mph - N/A   Clear
6:20 PM 69.8 °F 59.0 °F 68% 29.89 in - SW 4.6 mph - N/A   Clear
6:50 PM 69.8 °F 59.0 °F 68% 29.92 in - SW 4.6 mph - N/A   Clear
7:20 PM 68.0 °F 59.0 °F 73% 29.92 in - South 2.3 mph - N/A   Clear
7:50 PM 66.2 °F 59.0 °F 78% 29.92 in - Calm Calm - N/A   Clear
8:20 PM 66.2 °F 59.0 °F 78% 29.92 in - Calm Calm - N/A   Clear
8:50 PM 66.2 °F 60.8 °F 83% 29.92 in - ENE 3.5 mph - N/A   Clear
9:20 PM 66.2 °F 59.0 °F 78% 29.92 in - ENE 3.5 mph - N/A   Clear
9:50 PM 66.2 °F 59.0 °F 78% 29.92 in 5.0 mi ENE 3.5 mph - N/A   Unknown
10:20 PM 64.4 °F 59.0 °F 83% 29.92 in 5.0 mi Variable 2.3 mph - N/A   Unknown
10:50 PM 64.4 °F 59.0 °F 83% 29.92 in 5.0 mi NE 2.3 mph - N/A   Unknown
11:20 PM 62.6 °F 59.0 °F 88% 29.92 in 5.0 mi NNW 1.2 mph - N/A   Unknown
11:50 PM 60.8 °F 55.4 °F 82% 29.92 in 5.0 mi WNW 2.3 mph - N/A   Unknown